DW8750 Weather Reports


Display with metric or nautical units.
time (UTC)temp
F
wind
direction
speed
MPH
gust
MPH
rain 1hr
in
rain 24hr
in
rain mn
in
humidity
%
barometer
mb
20260506021312 66 184 2.0 4.0 0.00 0.00 0.00 54 1013.6
20260506020312 67 70 2.0 5.0 0.00 0.00 0.00 62 1013.6
20260506015312 68 153 3.0 7.0 0.00 0.00 0.00 59 1013.5
20260506014313 68 242 4.0 6.0 0.00 0.00 0.00 57 1013.7
20260506013310 68 322 6.0 11.0 0.00 0.00 0.00 49 1013.9
20260506010304 69 269 8.0 13.0 0.00 0.00 0.00 45 1014.2
20260506002300 67 197 6.0 13.0 0.00 0.00 0.00 50 1014.3
20260506000255 66 221 3.0 7.0 0.00 0.00 0.00 65 1014.4
20260505235256 65 175 3.0 4.0 0.00 0.00 0.00 70 1014.4
20260505234256 65 290 2.0 8.0 0.00 0.00 0.00 71 1014.4
20260505233254 65 123 2.0 4.0 0.00 0.00 0.00 70 1014.4
20260505232253 65 123 1.0 4.0 0.00 0.00 0.00 74 1014.5
20260505231256 65 113 1.0 4.0 0.00 0.00 0.00 73 1014.5
20260505230255 66 60 0.0 3.0 0.00 0.00 0.00 73 1014.6
20260505225257 66 167 3.0 6.0 0.00 0.00 0.00 72 1014.6
20260505224255 66 169 3.0 5.0 0.00 0.00 0.00 73 1014.7
20260505223253 65 188 1.0 3.0 0.00 0.00 0.00 74 1015.0
20260505222253 65 188 0.0 2.0 0.00 0.00 0.00 76 1015.2
20260505221254 65 188 0.0 3.0 0.00 0.00 0.00 76 1015.4
20260505220254 65 188 2.0 4.0 0.00 0.00 0.00 77 1015.5
20260505215255 65 188 1.0 2.0 0.00 0.00 0.00 78 1015.6
20260505214253 65 188 2.0 4.0 0.00 0.00 0.00 78 1015.8
20260505213254 65 154 1.0 3.0 0.00 0.00 0.00 80 1015.8
20260505212253 65 132 0.0 1.0 0.00 0.00 0.00 81 1015.8
20260505211255 65 132 0.0 1.0 0.00 0.00 0.00 80 1015.8
20260505210253 65 132 1.0 4.0 0.00 0.00 0.00 80 1015.8
20260505205256 65 148 0.0 0.0 0.00 0.00 0.00 79 1015.9
20260505204253 65 248 1.0 3.0 0.00 0.00 0.00 79 1016.0
20260505201251 65 181 0.0 2.0 0.00 0.00 0.00 81 1016.0
20260505195248 65 181 0.0 2.0 0.00 0.00 0.00 81 1016.4
20260505193249 65 148 1.0 3.0 0.00 0.00 0.00 82 1016.5
20260505192248 65 308 0.0 0.0 0.00 0.00 0.00 83 1016.6
20260505191242 65 308 0.0 1.0 0.00 0.00 0.00 83 1016.7
20260505190242 65 308 0.0 0.0 0.00 0.00 0.00 83 1016.7
20260505185242 65 308 0.0 0.0 0.00 0.00 0.00 83 1016.5
20260505184244 65 308 0.0 0.0 0.00 0.00 0.00 83 1016.4
20260505183244 65 308 1.0 2.0 0.00 0.00 0.00 82 1016.4
20260505182246 66 308 2.0 3.0 0.00 0.00 0.00 82 1016.6
20260505180244 66 307 3.0 4.0 0.00 0.00 0.00 81 1016.8
20260505175241 66 284 2.0 4.0 0.00 0.00 0.00 80 1016.8
20260505173240 67 323 1.0 5.0 0.00 0.00 0.00 78 1016.6
20260505172240 67 343 3.0 5.0 0.00 0.00 0.00 78 1016.7
20260505171244 68 331 3.0 5.0 0.00 0.00 0.00 77 1016.8
20260505170240 69 339 4.0 8.0 0.00 0.00 0.00 75 1016.7
20260505165242 69 340 3.0 6.0 0.00 0.00 0.00 72 1016.8
20260505164240 70 281 2.0 5.0 0.00 0.00 0.00 66 1016.8
20260505161239 70 340 1.0 3.0 0.00 0.00 0.00 68 1016.8
20260505160241 69 340 1.0 4.0 0.00 0.00 0.00 71 1016.7
20260505153238 69 355 5.0 10.0 0.00 0.00 0.00 70 1016.7
20260505152236 71 327 4.0 8.0 0.00 0.00 0.00 69 1016.7
20260505151235 71 15 4.0 6.0 0.00 0.00 0.00 69 1016.6
20260505150251 70 5 4.0 8.0 0.00 0.00 0.00 66 1016.6
20260505140236 71 349 5.0 9.0 0.00 0.00 0.00 63 1016.9
20260505124235 72 5 4.0 9.0 0.00 0.00 0.00 57 1017.1
20260505123237 72 345 5.0 10.0 0.00 0.00 0.00 57 1017.2
20260505122233 72 317 6.0 10.0 0.00 0.00 0.00 60 1017.2
20260505121233 72 350 8.0 12.0 0.00 0.00 0.00 58 1017.2
20260505115231 73 339 6.0 9.0 0.00 0.00 0.00 52 1017.2
20260505114231 73 323 6.0 10.0 0.00 0.00 0.00 56 1017.2
20260505113232 73 348 5.0 9.0 0.00 0.00 0.00 53 1017.2
20260505112231 74 328 4.0 9.0 0.00 0.00 0.00 54 1017.3
20260505111233 73 333 5.0 10.0 0.00 0.00 0.00 54 1017.4
20260505110231 73 337 5.0 9.0 0.00 0.00 0.00 53 1017.5
20260505100231 72 340 3.0 6.0 0.00 0.00 0.00 59 1017.8
20260505095231 72 342 3.0 8.0 0.00 0.00 0.00 61 1017.9
20260505094231 71 339 4.0 8.0 0.00 0.00 0.00 60 1017.9
20260505093232 71 355 4.0 9.0 0.00 0.00 0.00 61 1018.0
20260505092235 70 336 4.0 6.0 0.00 0.00 0.00 62 1018.0
20260505091231 70 348 4.0 6.0 0.00 0.00 0.00 61 1018.0
20260505090231 70 315 5.0 8.0 0.00 0.00 0.00 60 1018.0
20260505085231 70 323 5.0 9.0 0.00 0.00 0.00 62 1017.9
20260505084232 70 313 4.0 10.0 0.00 0.00 0.00 61 1018.0
20260505082227 70 319 3.0 6.0 0.00 0.00 0.00 65 1018.0
20260505081227 69 305 3.0 5.0 0.00 0.00 0.00 65 1017.9
20260505080226 69 300 2.0 4.0 0.00 0.00 0.00 64 1017.8
20260505074228 69 323 3.0 5.0 0.00 0.00 0.00 66 1017.8
20260505073241 69 315 1.0 4.0 0.00 0.00 0.00 66 1017.9
20260505072227 69 295 2.0 4.0 0.00 0.00 0.00 66 1017.9
20260505071229 68 355 1.0 3.0 0.00 0.00 0.00 68 1018.0
20260505070229 68 225 1.0 3.0 0.00 0.00 0.00 69 1018.1
20260505065228 67 319 1.0 4.0 0.00 0.00 0.00 70 1018.0
20260505064227 67 295 1.0 3.0 0.00 0.00 0.00 68 1018.2
20260505061222 66 210 1.0 2.0 0.00 0.00 0.00 74 1018.1
20260505060223 64 210 0.0 2.0 0.00 0.00 0.00 71 1018.2
20260505055221 63 210 1.0 3.0 0.00 0.00 0.00 73 1018.2
20260505054222 62 210 2.0 4.0 0.00 0.00 0.00 74 1018.2
20260505053223 62 210 1.0 4.0 0.00 0.00 0.00 75 1018.2
20260505052224 61 210 1.0 3.0 0.00 0.00 0.00 76 1018.1
20260505051222 60 210 1.0 3.0 0.00 0.00 0.00 77 1017.9
20260505050222 60 210 1.0 3.0 0.00 0.00 0.00 78 1017.8
20260505041222 60 210 0.0 2.0 0.00 0.00 0.00 77 1017.4
20260505035219 60 210 2.0 4.0 0.00 0.00 0.00 78 1017.1
20260505034220 60 210 2.0 3.0 0.00 0.00 0.00 78 1017.3
20260505033219 60 210 1.0 4.0 0.00 0.00 0.00 78 1017.1
20260505032220 60 184 0.0 2.0 0.00 0.00 0.00 78 1017.2
20260505030216 60 184 1.0 3.0 0.00 0.00 0.00 78 1017.1
20260505025224 60 184 1.0 3.0 0.00 0.00 0.00 78 1017.2
20260505024228 60 184 1.0 2.0 0.00 0.00 0.00 78 1017.2
20260505023221 60 184 2.0 3.0 0.00 0.00 0.00 78 1017.4
20260505022223 60 184 2.0 3.0 0.00 0.00 0.00 78 1017.5